Decorah, IA

7:10 AM CDT on June 26, 2017 (GMT -0500)
Decorah Municipal

Weather History for KDEH - February, 2013

Change the Weather History Date:

Saturday, February 9, 2013

  Actual Average Record
Temperature  
Mean Temperature 27 °F -  
Max Temperature 30 °F 27 °F 53 °F (1966)
Min Temperature 24 °F 5 °F -31 °F (1951)
Degree Days  
Heating Degree Days 38    
Moisture  
Dew Point 24 °F    
Average Humidity 87    
Maximum Humidity 93    
Minimum Humidity 86    
Precipitation  
Precipitation 0.00 in - - ()
Sea Level Pressure  
Sea Level Pressure 30.12 in    
Wind  
Wind Speed 12 mph (SSE)    
Max Wind Speed 18 mph    
Max Gust Speed 26 mph    
Visibility 9 miles    
Events      
Averages and records for this station are not official NWS values.
T = Trace of Precipitation, MM = Missing Value Source: NWS Daily Summary

Daily Weather History Graph

Daily Weather History Graph

Search for Another Location

Airport or City:

Trip Planner

Search our weather history database for the weather conditions in past years. The results will help you decide how hot, cold, wet, or windy it might be!

Date:

Astronomy

Feb. 09, 2013 Rise Set
Actual Time 7:12 AM CST 5:30 PM CST
Civil Twilight 6:43 AM CST 5:59 PM CST
Nautical Twilight 6:09 AM CST 6:33 PM CST
Astronomical Twilight 5:36 AM CST 7:06 PM CST
Moon 6:24 AM CST (2/9) 5:14 PM CST (2/9)
Length of Visible Light 11h 16m
Length of Day
10h 17m
Waning Crescent, 0% of the Moon is Illuminated
Feb 9
Waning Crescent
Feb 10
New
Feb 17
First Quarter
Feb 25
Full
Mar 4
Last Quarter

Hourly Weather History & Observations

Time (CST) Temp. Windchill Dew Point Humidity Pressure Visibility Wind Dir Wind Speed Gust Speed Precip Events Conditions
12:15 AM 24.8 °F 15.3 °F 21.2 °F 86% 30.28 in 10.0 mi South 9.2 mph 16.1 mph N/A   Overcast
12:35 AM 24.8 °F 14.6 °F 21.2 °F 86% 30.27 in 10.0 mi South 10.4 mph 17.3 mph N/A   Overcast
12:55 AM 24.8 °F 14.6 °F 23.0 °F 93% 30.26 in 10.0 mi SSE 10.4 mph - N/A   Overcast
1:15 AM 24.8 °F 15.3 °F 21.2 °F 86% 30.26 in 10.0 mi South 9.2 mph 16.1 mph N/A   Overcast
1:35 AM 24.8 °F 14.0 °F 23.0 °F 93% 30.26 in 10.0 mi South 11.5 mph 18.4 mph N/A   Overcast
1:55 AM 24.8 °F 12.9 °F 23.0 °F 93% 30.26 in 10.0 mi South 13.8 mph 19.6 mph N/A   Overcast
2:15 AM 24.8 °F 14.6 °F 23.0 °F 93% 30.27 in 10.0 mi South 10.4 mph - N/A   Overcast
2:35 AM 24.8 °F 16.1 °F 23.0 °F 93% 30.27 in 10.0 mi South 8.1 mph 15.0 mph N/A   Overcast
2:55 AM 24.8 °F 14.6 °F 23.0 °F 93% 30.26 in 10.0 mi South 10.4 mph 16.1 mph N/A   Overcast
3:15 AM 24.8 °F 14.6 °F 23.0 °F 93% 30.26 in 10.0 mi South 10.4 mph - N/A   Overcast
3:35 AM 24.8 °F 16.1 °F 23.0 °F 93% 30.25 in - South 8.1 mph 17.3 mph N/A   Overcast
3:55 AM 24.8 °F 14.6 °F 23.0 °F 93% 30.25 in 10.0 mi South 10.4 mph 16.1 mph N/A   Overcast
4:15 AM 24.8 °F 14.6 °F 21.2 °F 86% 30.24 in 10.0 mi South 10.4 mph 18.4 mph N/A   Overcast
4:35 AM 24.8 °F 14.6 °F 21.2 °F 86% 30.24 in 10.0 mi South 10.4 mph 16.1 mph N/A   Overcast
4:55 AM 24.8 °F 14.0 °F 21.2 °F 86% 30.23 in 10.0 mi South 11.5 mph - N/A   Overcast
5:15 AM 24.8 °F 12.4 °F 23.0 °F 93% 30.22 in 8.0 mi South 15.0 mph - N/A   Overcast
5:35 AM 24.8 °F 12.9 °F 21.2 °F 86% 30.22 in 10.0 mi South 13.8 mph 21.9 mph N/A   Overcast
5:55 AM 24.8 °F 13.4 °F 21.2 °F 86% 30.21 in 10.0 mi South 12.7 mph 19.6 mph N/A   Overcast
6:15 AM 24.8 °F 14.0 °F 21.2 °F 86% 30.21 in 10.0 mi South 11.5 mph 19.6 mph N/A   Overcast
6:35 AM 24.8 °F 12.9 °F 21.2 °F 86% 30.20 in 10.0 mi South 13.8 mph 25.3 mph N/A   Overcast
6:55 AM 24.8 °F 11.1 °F 21.2 °F 86% 30.18 in 10.0 mi South 18.4 mph - N/A   Overcast
7:15 AM 24.8 °F 12.4 °F 21.2 °F 86% 30.18 in 9.0 mi South 15.0 mph 21.9 mph N/A   Overcast
7:35 AM 24.8 °F 12.9 °F 21.2 °F 86% 30.19 in 9.0 mi South 13.8 mph 20.7 mph N/A   Overcast
7:55 AM 24.8 °F 11.9 °F 21.2 °F 86% 30.17 in 10.0 mi South 16.1 mph 24.2 mph N/A   Overcast
8:15 AM 24.8 °F 12.4 °F 21.2 °F 86% 30.18 in 9.0 mi South 15.0 mph 23.0 mph N/A   Overcast
8:35 AM 24.8 °F 14.6 °F 21.2 °F 86% 30.18 in 9.0 mi South 10.4 mph 24.2 mph N/A   Overcast
8:55 AM 24.8 °F 11.9 °F 23.0 °F 93% 30.19 in 9.0 mi South 16.1 mph 24.2 mph N/A   Overcast
9:15 AM 24.8 °F 11.9 °F 21.2 °F 86% 30.19 in 9.0 mi South 16.1 mph - N/A   Overcast
9:35 AM 26.6 °F 18.2 °F 23.0 °F 86% 30.19 in 9.0 mi South 8.1 mph 18.4 mph N/A   Overcast
9:55 AM 26.6 °F 19.1 °F 23.0 °F 86% 30.19 in 9.0 mi Variable 6.9 mph 18.4 mph N/A   Overcast
10:15 AM 26.6 °F 15.7 °F 23.0 °F 86% 30.18 in 8.0 mi South 12.7 mph 18.4 mph N/A   Overcast
10:35 AM 26.6 °F 16.8 °F 23.0 °F 86% 30.17 in 8.0 mi South 10.4 mph 20.7 mph N/A   Overcast
10:55 AM 26.6 °F 16.8 °F 23.0 °F 86% 30.17 in 7.0 mi South 10.4 mph 19.6 mph N/A   Overcast
11:15 AM 26.6 °F 14.7 °F 23.0 °F 86% 30.16 in 8.0 mi South 15.0 mph - N/A   Overcast
11:35 AM 26.6 °F 14.3 °F 23.0 °F 86% 30.15 in 8.0 mi South 16.1 mph - N/A   Overcast
11:55 AM 26.6 °F 13.8 °F 23.0 °F 86% 30.14 in 8.0 mi South 17.3 mph 23.0 mph N/A   Overcast
12:15 PM 26.6 °F 14.7 °F 24.8 °F 93% 30.13 in 7.0 mi South 15.0 mph 21.9 mph N/A   Overcast
12:35 PM 28.4 °F 16.6 °F 24.8 °F 86% 30.12 in 7.0 mi South 16.1 mph 23.0 mph N/A   Overcast
12:55 PM 28.4 °F 16.6 °F 24.8 °F 86% 30.11 in 7.0 mi South 16.1 mph 26.5 mph N/A   Overcast
1:15 PM 28.4 °F 17.5 °F 24.8 °F 86% 30.11 in 7.0 mi South 13.8 mph 21.9 mph N/A   Overcast
1:35 PM 28.4 °F 17.0 °F 24.8 °F 86% 30.10 in 6.0 mi South 15.0 mph - N/A   Overcast
1:55 PM 28.4 °F 17.0 °F 24.8 °F 86% 30.09 in 7.0 mi South 15.0 mph - N/A   Overcast
2:15 PM 28.4 °F 18.5 °F 24.8 °F 86% 30.08 in 7.0 mi SSE 11.5 mph 23.0 mph N/A   Overcast
2:35 PM 28.4 °F 18.0 °F 24.8 °F 86% 30.07 in 8.0 mi South 12.7 mph 21.9 mph N/A   Overcast
2:55 PM 28.4 °F 16.2 °F 24.8 °F 86% 30.06 in 8.0 mi South 17.3 mph - N/A   Overcast
3:15 PM 28.4 °F 17.0 °F 24.8 °F 86% 30.05 in 7.0 mi SSE 15.0 mph - N/A   Overcast
3:35 PM 28.4 °F 18.0 °F 24.8 °F 86% 30.05 in 7.0 mi SSE 12.7 mph 19.6 mph N/A   Overcast
3:55 PM 28.4 °F 18.0 °F 24.8 °F 86% 30.04 in 7.0 mi SSE 12.7 mph 19.6 mph N/A   Overcast
4:15 PM 28.4 °F 19.1 °F 26.6 °F 93% 30.03 in 7.0 mi SSE 10.4 mph 18.4 mph N/A   Overcast
4:35 PM 28.4 °F 18.5 °F 26.6 °F 93% 30.02 in 7.0 mi SSE 11.5 mph 19.6 mph N/A   Overcast
4:55 PM 28.4 °F 17.0 °F 24.8 °F 86% 30.02 in 8.0 mi SSE 15.0 mph - N/A   Overcast
5:15 PM 28.4 °F 18.0 °F 24.8 °F 86% 30.01 in 8.0 mi SSE 12.7 mph 21.9 mph N/A   Overcast
5:35 PM 28.4 °F 18.0 °F 24.8 °F 86% 30.01 in 9.0 mi SSE 12.7 mph 21.9 mph N/A   Overcast
5:55 PM 28.4 °F 18.5 °F 24.8 °F 86% 30.01 in 9.0 mi SSE 11.5 mph 17.3 mph N/A   Overcast
6:15 PM 28.4 °F 18.5 °F 24.8 °F 86% 30.00 in 10.0 mi SSE 11.5 mph 20.7 mph N/A   Overcast
6:35 PM 28.4 °F 19.1 °F 24.8 °F 86% 30.00 in 10.0 mi SSE 10.4 mph 18.4 mph N/A   Overcast
6:55 PM 28.4 °F 17.0 °F 24.8 °F 86% 30.00 in 10.0 mi SSE 15.0 mph 21.9 mph N/A   Overcast
7:35 PM - - - N/A% - 10.0 mi North - - N/A   Overcast
7:55 PM 28.4 °F 17.5 °F 24.8 °F 86% 30.01 in 10.0 mi SSE 13.8 mph - N/A   Overcast
8:15 PM 28.4 °F 17.5 °F 24.8 °F 86% 30.00 in 10.0 mi SSE 13.8 mph 20.7 mph N/A   Overcast
8:35 PM 30.2 °F 20.8 °F 26.6 °F 86% 30.00 in 10.0 mi SSE 11.5 mph 19.6 mph N/A   Overcast
8:55 PM 30.2 °F 20.8 °F 26.6 °F 86% 29.99 in 10.0 mi SSE 11.5 mph 19.6 mph N/A   Overcast
9:35 PM 30.2 °F 20.8 °F 26.6 °F 86% 29.98 in 10.0 mi SSE 11.5 mph 20.7 mph N/A   Overcast
9:55 PM 30.2 °F 20.2 °F 26.6 °F 86% 29.99 in 10.0 mi SSE 12.7 mph 20.7 mph N/A   Overcast
10:15 PM 30.2 °F 21.3 °F 26.6 °F 86% 29.98 in 10.0 mi SSE 10.4 mph 18.4 mph N/A   Overcast
10:35 PM 30.2 °F 21.3 °F 26.6 °F 86% 29.96 in 9.0 mi SSE 10.4 mph 16.1 mph N/A   Overcast
10:55 PM 30.2 °F 20.8 °F 26.6 °F 86% 29.95 in 8.0 mi SSE 11.5 mph 17.3 mph N/A   Overcast
11:15 PM 30.2 °F 20.2 °F 26.6 °F 86% 29.94 in 8.0 mi SSE 12.7 mph 19.6 mph N/A   Overcast
11:35 PM 30.2 °F 20.8 °F 26.6 °F 86% 29.94 in 7.0 mi SSE 11.5 mph 19.6 mph N/A   Overcast
11:55 PM 30.2 °F 21.3 °F 26.6 °F 86% 29.93 in 7.0 mi SSE 10.4 mph 18.4 mph N/A   Overcast